Tracking 20241 objects as of 25-Jan-2020
HD Live streaming from Space Station
objects crossing your sky now

COSMOS 739

Track COSMOS 739 now!
10-day predictions
COSMOS 739 is classified as:


NORAD ID: 7828
Int'l Code: 1975-045H
Perigee: 1,429.1 km
Apogee: 1,479.4 km
Inclination: 74.0 °
Period: 114.8 minutes
Semi major axis: 7825 km
RCS: 0.7072 m2 (medium)
Launch date: May 28, 1975
Source: Commonwealth of Independent States (former USSR) (CIS)
Launch site: PLESETSK MISSILE AND SPACE COMPLEX (PKMTR)
aabbcc
Your satellite tracking list
Your tracking list is empty




NASA's NSSDC Master Catalog

Two Line Element Set (TLE):
1  7828U 75045H   20024.68645014 -.00000028  00000-0 -72087-4 0  9998
2  7828  74.0191   1.7209 0032140 267.2693 266.0010 12.54163898 44979
Source of the keplerian elements: AFSPC